Location: �clusier
(49.9361°N, 2.7869°E)
Time: 19:53:23
(UTC+00:00)

Cosmos 1452 Rocket - Pass Details

Date: 01 November 2021
Orbit: 767 x 775 km, 74.1° (Epoch: 04 December)

Event Time Altitude Azimuth Distance (km) Brightness Sun altitude
Exits shadow 02:32:42 - 6° (N) 2,421 6.4 -39.2°
Reaches altitude 10° 02:33:12 10° 11° (N) 2,335 6.3 -39.1°
Maximum altitude 02:35:35 13° 38° (NE) 2,131 6.3 -38.7°
Drops below altitude 10° 02:37:58 10° 65° (ENE) 2,329 6.7 -38.4°
Sets 02:41:48 0° 93° (E) 3,251 7.5 -37.8°
